This is the latest recevied weather packets stored in our database for station/object W4NDF-13. If no packets are shown the sender has not sent any weather packets the latest 10 day(s).
| Time | Temp. | Humidity | Pressure | Rain* | Wind** | Luminosity | Snow |
|---|---|---|---|---|---|---|---|
| 1777797754 | 15.56° C | 65% | 1021.5 hPa | 0 mm | - | 0 W/m² | - |
| 1777797451 | 15.56° C | 63% | 1021.1 hPa | 0 mm | - | 0 W/m² | - |
| 1777797148 | 16.11° C | 63% | 1021 hPa | 0 mm | - | 0 W/m² | - |
| 1777796845 | 16.67° C | 61% | 1020.9 hPa | 0 mm | - | 0 W/m² | - |
| 1777796542 | 17.78° C | 58% | 1020.8 hPa | 0 mm | - | 0 W/m² | - |
| 1777796236 | 17.78° C | 56% | 1020.9 hPa | 0 mm | - | 0 W/m² | - |
| 1777795934 | 17.78° C | 55% | 1020.9 hPa | 0 mm | - | 0 W/m² | - |
| 1777795630 | 18.33° C | 54% | 1020.9 hPa | 0 mm | - | 0 W/m² | - |
| 1777795327 | 18.33° C | 54% | 1020.7 hPa | 0 mm | - | 0 W/m² | - |
| 1777795023 | 18.33° C | 54% | 1020.8 hPa | 0 mm | - | 0 W/m² | - |
| 1777794720 | 18.33° C | 55% | 1020.7 hPa | 0 mm | - | 0 W/m² | - |
| 1777794416 | 18.33° C | 54% | 1020.8 hPa | 0 mm | - | 0 W/m² | - |
| 1777794111 | 18.33° C | 53% | 1020.6 hPa | 0 mm | - | 0 W/m² | - |
| 1777793808 | 18.33° C | 53% | 1020.6 hPa | 0 mm | - | 0 W/m² | - |
| 1777793506 | 18.33° C | 55% | 1020.5 hPa | 0 mm | - | 0 W/m² | - |
| 1777793204 | 18.33° C | 54% | 1020.6 hPa | 0 mm | - | 0 W/m² | - |
| 1777792900 | 18.89° C | 54% | 1020.4 hPa | 0 mm | - | 0 W/m² | - |
| 1777792597 | 18.89° C | 54% | 1020.5 hPa | 0 mm | - | 0 W/m² | - |
| 1777792293 | 18.89° C | 54% | 1020.5 hPa | 0 mm | - | 0 W/m² | - |
| 1777791991 | 18.89° C | 54% | 1020.4 hPa | 0 mm | - | 0 W/m² | - |
| 1777791689 | 18.89° C | 53% | 1020.6 hPa | 0 mm | - | 0 W/m² | - |
| 1777791386 | 18.89° C | 53% | 1020.7 hPa | 0 mm | - | 0 W/m² | - |
| 1777791084 | 18.89° C | 53% | 1020.4 hPa | 0 mm | - | 0 W/m² | - |
| 1777790781 | 18.89° C | 53% | 1020.7 hPa | 0 mm | - | 0 W/m² | - |
| 1777790478 | 18.89° C | 53% | 1020.6 hPa | 0 mm | - | 0 W/m² | - |
* Rain latest hour (hover to see other rain measurements)
** Current wind speed in m/s (hover to see current wind gust speed)